Find Starlink 36892

NORAD ID: 67944 Int'l Des: 2026-037 Owner: SPXS Country: US Constellation: starlink operational
LEOCIRCULARRETROGRADE

Live Position

Loading 3D Globe...

About Starlink 36892

Description loading...

Upcoming Passes

Passes for default location (London). Set your location on the main map for personalized predictions.

Altitude History

Loading altitude history...

Two-Line Element Set

1 67944U 26037N 26111.91776472 .00013612 00000-0 50289-3 0 9992
2 67944 43.0021 306.4351 0001565 266.9152 93.1521 15.27604800 9959
Epoch: Apr 21, 2026 • Age: 19 hours

Current Status

Altitude 484.7 km
Velocity 7.63 km/s
Sub-Earth Point 32.21°N, 122.81°W
Launch Date Feb 24, 2026
Age 0.1 years
Type internet

Technical Details

Classification Payload
Mass 575.00 kg
Dry Mass 530.00 kg
Total Mass 575.00 kg
Length 0.30 m
Diameter 4.10 m
Span 29.00 m
Shape Box + pan
Manufacturer SPXS
Bus Type Starlink V2MO
Phase Status In Orbit
Owner/State SPXS/US

Most Searched